Regional Weather Roundup
Issued by NWS

Home | Current Version | Previous Version | Graphics & Text | Print | Product List | Glossary On
Versions: 1 2 3 4 5 6 7 8 9 10 11 12 13 14 15 16 17 18 19 20 21 22 23 24 25 26 27 28 29 30 31 32 33 34 35 36 37 38 39 40 41 42 43 44 45 46 47 48 49 50
579
ASUS43 KLMK 140710
RWRKY
KENTUCKY REGIONAL WEATHER ROUNDUP
NATIONAL WEATHER SERVICE LOUISVILLE KY
200 AM EST SUN FEB 14 2016

NOTE "FAIR" INDICATES FEW OR NO CLOUDS BELOW 12,000 FEET
WITH NO SIGNIFICANT WEATHER AND/OR OBSTRUCTIONS TO VISIBILITY.

KYZ001>023-026-027-061>063-070>075-140800-
WESTERN AND SOUTH CENTRAL KENTUCKY

CITY           SKY/WX    TMP DP  RH WIND       PRES   REMARKS
PADUCAH        CLOUDY    25   9  50 E8        30.37F WCI  16
HENDERSON      CLOUDY    21   7  53 E12       30.44F WCI   9
OWENSBORO      CLOUDY    23   4  44 E6        30.45F WCI  16
HOPKINSVILLE   CLOUDY    25   6  43 E9        30.40F WCI  15
BOWLING GREEN  CLOUDY    26   6  42 E5        30.45R WCI  20
GLASGOW        CLOUDY    22   7  52 E7        30.43S WCI  14
$$

KYZ024-025-028>034-038-045-046-053-140800-
NORTH CENTRAL KENTUCKY

CITY           SKY/WX    TMP DP  RH WIND       PRES   REMARKS
LOUISVILLE/SDF CLOUDY    20   3  48 E5        30.47S WCI  13
LOUISVILLE/LOU PTCLDY    19   4  51 E6        30.47S WCI  11
FORT KNOX      CLOUDY    19   5  53 E7        30.42S WCI  10
$$

KYZ035>037-039>044-047>052-055>060-089>105-140800-
NORTHEAST KENTUCKY

CITY           SKY/WX    TMP DP  RH WIND       PRES   REMARKS
LEXINGTON      PTCLDY    17   3  54 E8        30.43F WCI   7
COVINGTON      CLOUDY    14   6  70 NE7       30.45F WCI   4
FRANKFORT      PTCLDY    17   3  54 E7        30.44F WCI   8
$$

KYZ054-064>069-076>088-106>120-140800-
SOUTHEAST KENTUCKY

CITY           SKY/WX    TMP DP  RH WIND       PRES   REMARKS
JACKSON        CLOUDY    13   1  59 CALM      30.40F
LONDON         CLOUDY    16   2  54 CALM      30.41R
SOMERSET       PTCLDY    18   3  53 CALM      30.44S
MIDDLESBORO    CLOUDY    15  10  78 CALM      30.41S
MONTICELLO     PTSUNNY   19   8  62 VRB3      30.43F
$$





USA.gov is the U.S. government's official web portal to all federal, state and local government web resources and services.